Погода в Ишмурзино-Суринске

Россия / Чувашская Республика     55°03′17″N   47°53′43″E
темп.,
°C
ветер,
м/с
пор.,
м/с
влажн.,
%
обл.,
%
осадки,
мм/ч
давл.,
гПа
погр.,
м
6 марта, сб
сб600:00−11зюз34939 0.0 101053
03:00−11зюз499536 0.0 1011158
06:00−12з489578 0.1 1013152
09:00−13зсз489264 0.1 1014244
12:00−10зсз23860 0.0 1015229
15:00−9ююз23880 0.0 101488
18:00−12юз34870 0.0 101427
21:00−14зюз23920 0.0 101420
7 марта, вс
вс700:00−16з22970 0.0 101220
03:00−15зюз229729 0.0 101220
06:00−16юз239786 0.0 101220
09:00−14юз359568 0.0 1011159
12:00−10ююз589231 0.0 1009370
15:00−7ю5108761 0.0 1006616
18:00−7ююз71488100 0.0 1002787
21:00−7ю81593100 0.8 999857
8 марта, пн
пн800:00−5ююз81494100 0.8 994922
03:00−5з81481100 1.6 994865
06:00−10зюз715800 0.0 996428
09:00−10юз7138710 0.0 997448
12:00−6юз6128433 0.0 997826
15:00−5зюз6118767 0.6 997944
18:00−6з5109293 0.3 998394
21:00−11зюз479156 0.3 1001137
9 марта, вт
вт900:00−13зюз47930 0.0 1003113
03:00−14з489518 0.0 1005147
06:00−15з489694 0.1 1007177
09:00−15зсз589488 0.1 1009293
12:00−13зсз478988 0.0 1010523
15:00−11зсз478894 0.1 1011748
18:00−15зсз3595100 0.1 1013128
21:00−19зсз469796 0.1 101496
10 марта, ср
ср1000:00−21зсз479858 0.0 101591
03:00−22зсз469969 0.0 101696
06:00−23зсз489894 0.0 1016151
09:00−21сз479694 0.1 1018285
12:00−19сз5791100 0.0 1019493
15:00−19сз5791100 0.1 1019515
18:00−22сз4109596 0.0 1021200
21:00−24сз469894 0.0 1023110